Regional Weather Roundup
Issued by NWS

Home | Current Version | Previous Version | Graphics & Text | Print | Product List | Glossary On
Versions: 1 2 3 4 5 6 7 8 9 10 11 12 13 14 15 16 17 18 19 20 21 22 23 24 25 26 27 28 29 30 31 32 33 34 35 36 37 38 39 40 41 42 43 44 45 46 47 48 49 50
468
ASUS43 KDTX 030110
RWRMI
MICHIGAN HOURLY REGIONAL WEATHER ROUNDUP
NATIONAL WEATHER SERVICE DETROIT/PONTIAC MI
900 PM EDT MON MAY 02 2016

NOTE: "FAIR" INDICATES FEW OR NO CLOUDS BELOW 12,000 FEET WITH NO
SIGNIFICANT WEATHER AND/OR OBSTRUCTION TO VISIBILITY.

MIZ047>049-052>055-059>063-066>070-074>076-081>083-030200-
SOUTHEAST LOWER MICHIGAN

CITY           SKY/WX    TMP DP  RH WIND       PRES   REMARKS
ADRIAN         CLOUDY    51  45  79 NE3       29.99F
ALMA           PTCLDY    51  38  62 SW7       30.01S
ANN ARBOR      CLOUDY    50  46  86 CALM      29.99S
BAD AXE        CLEAR     48  31  53 CALM      30.00S
CARO           CLEAR     45  38  79 CALM      29.99S
DETROIT CITY   CLOUDY    52  43  71 SE3       29.99S
DETROIT        CLOUDY    52  43  71 CALM      30.00S
FLINT          CLOUDY    55  42  61 SW5       29.99S
GROSSE ILE     CLOUDY    50  46  87 SE5       29.98F
HILLSDALE      CLOUDY    49  44  82 CALM      29.99S
HOWELL         CLOUDY    51  44  75 CALM      29.99F

CITY           SKY/WX    TMP DP  RH WIND       PRES   REMARKS
JACKSON        CLOUDY    50  44  80 CALM      29.99F
LAMBERTVILLE   CLOUDY    51  46  84 CALM      29.99F
LANSING        CLOUDY    52  42  69 N3        30.00F
LAPEER         FAIR      49  37  64 CALM      30.00S
MASON          CLOUDY    50  45  81 CALM      29.99F
MONROE         CLOUDY    51  46  82 CALM      29.99S
PONTIAC        MOCLDY    52  42  69 W3        29.98S
PORT HOPE        N/A     45  35  68 NW5       29.99S
PORT HURON     PTCLDY    45  36  70 NE3       30.00F
TRI CITIES     CLEAR     51  35  54 NE6       30.01S
MIDLAND        FAIR      52  30  42 E3        30.00F
TROY           CLOUDY    54  43  66 CALM      30.00S
SAGINAW HB     CLEAR     50  34  53 N3        30.00S
$$
MIZ043>046-050>051-056>058-064>065-071>073-077>080-030200-
SOUTHWEST LOWER MICHIGAN

CITY           SKY/WX    TMP DP  RH WIND       PRES   REMARKS
BATTLE CREEK   CLOUDY    51  43  74 NE3       30.00S
BENTON HARBOR  CLOUDY    49  38  65 CALM      30.01S
BIG RAPIDS     CLOUDY    55  31  38 S3        29.99S
COLDWATER      CLOUDY    49  46  89 CALM      30.00S
FREMONT        CLOUDY    55  36  48 CALM      30.00S
HOLLAND        CLEAR     51  41  68 NW3       30.01S
GRAND RAPIDS   PTCLDY    52  42  69 E5        30.01S
IONIA          FAIR      50  42  76 CALM      30.00S
KALAMAZOO      CLOUDY    53  43  68 CALM      30.00S
LUDINGTON      CLEAR     52  31  45 N5        30.01S
MARSHALL       CLOUDY    50  45  83 CALM      29.99F
MOUNT PLEASANT CLEAR     53  31  43 CALM      30.00S
MUSKEGON       MOCLDY    47  39  74 SW5       30.01S
SOUTH HAVEN    CLOUDY    48  38  67 CALM      30.01S
$$
MIZ016>042-030200-
NORTHERN LOWER MICHIGAN

CITY           SKY/WX    TMP DP  RH WIND       PRES   REMARKS
ALPENA         CLEAR     54  29  38 CALM      29.99S
BEAVER ISLAND  CLEAR     46  33  59 CALM      30.00F
BELLAIRE       CLEAR     55  29  36 N3        30.00S
CADILLAC       CLOUDY    55  32  42 CALM      29.98S
CHARLEVOIX     CLEAR     50  33  52 W3        30.03S
FRANKFORT      CLEAR     54  31  42 NE3       30.00S
GAYLORD        MOCLDY    56  28  34 NW3       29.99R
GRAYLING       CLOUDY    55  32  41 W3        29.99S
HARBOR SPRINGS CLEAR     42  36  79 CALM      30.00S
HOUGHTON LAKE  PTCLDY    52  33  48 S7        30.00R
OSCODA         CLEAR     52  30  42 CALM      30.00R
PELLSTON       CLEAR     51  30  44 NW7       30.00S
ROGERS CITY    CLEAR     49  29  45 CALM      30.00S
TRAVERSE CITY  PTCLDY    49  36  61 CALM      29.99S
$$
MIZ007>008-015-030200-
EASTERN UPPER MICHIGAN

CITY           SKY/WX    TMP DP  RH WIND       PRES   REMARKS
KINROSS          N/A     46  34  61 N6        30.00S
MACKINAC ISLAN CLEAR     51  34  51 NW5       30.00S
NEWBERRY       CLEAR     50  32  50 N3        30.00S
S. S. MARIE    CLEAR     47  31  53 NW8       30.00S
MUNISING         N/A     44  36  73 CALM      30.00F
$$
MIZ004>006-011>014-085-030200-
CENTRAL UPPER MICHIGAN

CITY           SKY/WX    TMP DP  RH WIND       PRES   REMARKS
MANISTIQUE     CLEAR     50  34  52 CALM      30.00S
ESCANABA       CLEAR     52  34  50 S5        30.00S
MENOMINEE      CLEAR     55  30  38 S5        30.00S
SAWYER-GWINN   CLEAR     50  32  50 NE5       29.99S
$$
MIZ001>003-009>011-084-030200-
WESTERN UPPER MICHIGAN

CITY           SKY/WX    TMP DP  RH WIND       PRES   REMARKS
IRON MOUNTAIN  CLOUDY    56  30  37 SE5       29.97S
HOUGHTON       CLEAR     51  34  52 CALM      29.98F
COPPER HARBOR    N/A     50  34  54 SW3       29.99S
IRONWOOD         N/A     55  27  33 NW3       29.97S
$$

ABBREVIATIONS USED IN REMARKS
   TC - TEMPERATURE IN CELSIUS
  WCI - WIND CHILL INDEX
   HX - HEAT INDEX
  VSB - VISIBILITY





USA.gov is the U.S. government's official web portal to all federal, state and local government web resources and services.